Wetterdaten: Woche 11.03.13 - 17.03.13 (KW11)
Datum Zeit Temp. Aussen +5cm Feuchte Auss Luftdruck Regen Sonnenschein Regendauer UV Solar Windben
11.03.2013 00:00 -1,1 C -2,1 C 85 % 1004,8 hPa 0,0 l/m 0,00 h 0,00 h 0,0 UV-I 0 W/m 6,5 km/h (2 Bft)
11.03.2013 01:00 -1,2 C -2,1 C 86 % 1004,9 hPa 0,0 l/m 0,00 h 0,00 h 0,0 UV-I 0 W/m 9,4 km/h (2 Bft)
11.03.2013 02:00 -1,5 C -2,4 C 87 % 1005,0 hPa 0,0 l/m 0,00 h 0,00 h 0,0 UV-I 0 W/m 9,6 km/h (2 Bft)
11.03.2013 03:00 -1,8 C -2,7 C 87 % 1004,9 hPa 0,0 l/m 0,00 h 0,00 h 0,0 UV-I 0 W/m 10,1 km/h (2 Bft)
11.03.2013 04:00 -1,9 C -2,7 C 83 % 1004,9 hPa 0,0 l/m 0,00 h 0,00 h 0,0 UV-I 0 W/m 9,3 km/h (2 Bft)
11.03.2013 05:00 -2,0 C -2,7 C 82 % 1005,0 hPa 0,0 l/m 0,00 h 0,00 h 0,0 UV-I 0 W/m 9,7 km/h (2 Bft)
11.03.2013 06:00 -2,1 C -2,9 C 81 % 1005,1 hPa 0,0 l/m 0,00 h 0,00 h 0,0 UV-I 0 W/m 11,9 km/h (2 Bft)
11.03.2013 07:00 -2,2 C -3,0 C 79 % 1005,4 hPa 0,0 l/m 0,00 h 0,00 h 0,0 UV-I 11 W/m 12,4 km/h (3 Bft)
11.03.2013 08:00 -2,2 C -2,7 C 79 % 1005,7 hPa 0,0 l/m 0,00 h 0,00 h 0,0 UV-I 42 W/m 10,6 km/h (2 Bft)
11.03.2013 09:00 -2,0 C -2,4 C 78 % 1005,9 hPa 0,0 l/m 0,00 h 0,00 h 0,0 UV-I 69 W/m 10,5 km/h (2 Bft)
11.03.2013 10:00 -1,7 C -1,6 C 77 % 1006,1 hPa 0,0 l/m 0,00 h 0,00 h 0,0 UV-I 118 W/m 12,5 km/h (3 Bft)
11.03.2013 11:00 -1,2 C -1,0 C 76 % 1006,2 hPa 0,0 l/m 0,00 h 0,00 h 0,0 UV-I 132 W/m 11,7 km/h (2 Bft)
11.03.2013 12:00 -1,1 C -0,7 C 75 % 1005,8 hPa 0,0 l/m 0,00 h 0,00 h 0,0 UV-I 153 W/m 14,3 km/h (3 Bft)
11.03.2013 13:00 -0,7 C -0,4 C 74 % 1005,5 hPa 0,0 l/m 0,00 h 0,00 h 0,0 UV-I 139 W/m 13,4 km/h (3 Bft)
11.03.2013 14:00 -0,9 C -0,9 C 75 % 1005,5 hPa 0,0 l/m 0,00 h 0,00 h 0,0 UV-I 104 W/m 15,7 km/h (3 Bft)
11.03.2013 15:00 -1,4 C -1,7 C 81 % 1005,7 hPa 0,0 l/m 0,00 h 0,00 h 0,0 UV-I 85 W/m 12,5 km/h (3 Bft)
11.03.2013 16:00 -2,0 C -2,6 C 90 % 1005,6 hPa 0,0 l/m 0,00 h 0,00 h 0,0 UV-I 49 W/m 7,4 km/h (2 Bft)
11.03.2013 17:00 -2,4 C -2,9 C 93 % 1005,4 hPa 0,4 l/m 0,00 h 0,07 h 0,0 UV-I 24 W/m 6,0 km/h (2 Bft)
11.03.2013 18:00 -2,7 C -3,5 C 93 % 1005,7 hPa 0,0 l/m 0,00 h 0,00 h 0,0 UV-I 6 W/m 6,9 km/h (2 Bft)
11.03.2013 19:00 -2,8 C -3,8 C 93 % 1005,9 hPa 0,0 l/m 0,00 h 0,00 h 0,0 UV-I 0 W/m 6,2 km/h (2 Bft)
11.03.2013 20:00 -2,8 C -3,8 C 92 % 1006,0 hPa 0,0 l/m 0,00 h 0,00 h 0,0 UV-I 0 W/m 8,2 km/h (2 Bft)
11.03.2013 21:00 -2,8 C -3,8 C 91 % 1005,8 hPa 0,0 l/m 0,00 h 0,00 h 0,0 UV-I 0 W/m 8,3 km/h (2 Bft)
11.03.2013 22:00 -2,9 C -3,8 C 89 % 1005,8 hPa 0,0 l/m 0,00 h 0,00 h 0,0 UV-I 0 W/m 10,3 km/h (2 Bft)
11.03.2013 23:00 -3,0 C -3,8 C 89 % 1005,7 hPa 0,0 l/m 0,00 h 0,00 h 0,0 UV-I 0 W/m 10,5 km/h (2 Bft)
12.03.2013 00:00 -3,2 C -4,1 C 89 % 1005,3 hPa 0,0 l/m 0,00 h 0,00 h 0,0 UV-I 0 W/m 11,7 km/h (2 Bft)
12.03.2013 01:00 -3,2 C -3,9 C 87 % 1005,2 hPa 0,0 l/m 0,00 h 0,00 h 0,0 UV-I 0 W/m 11,2 km/h (2 Bft)
12.03.2013 02:00 -3,3 C -4,3 C 90 % 1004,8 hPa 0,0 l/m 0,00 h 0,00 h 0,0 UV-I 0 W/m 12,3 km/h (3 Bft)
12.03.2013 03:00 -3,5 C -4,3 C 93 % 1004,3 hPa 0,0 l/m 0,00 h 0,00 h 0,0 UV-I 0 W/m 9,3 km/h (2 Bft)
12.03.2013 04:00 -3,6 C -4,3 C 94 % 1003,9 hPa 0,0 l/m 0,00 h 0,00 h 0,0 UV-I 0 W/m 12,5 km/h (3 Bft)
12.03.2013 05:00 -3,7 C -4,3 C 95 % 1003,8 hPa 0,0 l/m 0,00 h 0,00 h 0,0 UV-I 0 W/m 12,4 km/h (3 Bft)
12.03.2013 06:00 -3,8 C -4,3 C 95 % 1003,7 hPa 0,0 l/m 0,00 h 0,00 h 0,0 UV-I 0 W/m 9,9 km/h (2 Bft)
12.03.2013 07:00 -3,9 C -3,7 C 94 % 1003,7 hPa 1,0 l/m 0,00 h 0,07 h 0,0 UV-I 9 W/m 10,0 km/h (2 Bft)
12.03.2013 08:00 -3,9 C -2,9 C 94 % 1003,9 hPa 0,8 l/m 0,00 h 0,00 h 0,0 UV-I 25 W/m 11,1 km/h (2 Bft)
12.03.2013 09:00 -3,6 C -2,1 C 94 % 1004,0 hPa 0,4 l/m 0,00 h 0,00 h 0,0 UV-I 40 W/m 12,2 km/h (2 Bft)
12.03.2013 10:00 -3,2 C -1,6 C 93 % 1004,0 hPa 0,2 l/m 0,00 h 0,00 h 0,0 UV-I 51 W/m 10,6 km/h (2 Bft)
12.03.2013 11:00 -2,7 C -1,0 C 92 % 1004,2 hPa 0,6 l/m 0,00 h 0,00 h 0,0 UV-I 60 W/m 10,4 km/h (2 Bft)
12.03.2013 12:00 -2,5 C -1,0 C 91 % 1004,1 hPa 0,6 l/m 0,00 h 0,00 h 0,0 UV-I 64 W/m 13,0 km/h (3 Bft)
12.03.2013 13:00 -2,1 C -1,0 C 87 % 1003,8 hPa 0,0 l/m 0,00 h 0,00 h 0,0 UV-I 175 W/m 17,0 km/h (3 Bft)
12.03.2013 14:00 -1,3 C -1,0 C 83 % 1003,6 hPa 0,0 l/m 0,00 h 0,00 h 0,0 UV-I 225 W/m 13,6 km/h (3 Bft)
12.03.2013 15:00 -1,0 C -1,0 C 79 % 1003,6 hPa 0,0 l/m 0,00 h 0,00 h 0,0 UV-I 173 W/m 13,5 km/h (3 Bft)
12.03.2013 16:00 -0,9 C -1,0 C 77 % 1003,6 hPa 0,0 l/m 0,00 h 0,00 h 0,0 UV-I 148 W/m 12,2 km/h (2 Bft)
12.03.2013 17:00 -1,3 C -1,0 C 76 % 1003,6 hPa 0,0 l/m 0,00 h 0,00 h 0,0 UV-I 67 W/m 11,7 km/h (2 Bft)
12.03.2013 18:00 -1,9 C -1,5 C 77 % 1004,0 hPa 0,0 l/m 0,00 h 0,00 h 0,0 UV-I 11 W/m 10,4 km/h (2 Bft)
12.03.2013 19:00 -2,3 C -2,0 C 77 % 1004,3 hPa 0,0 l/m 0,00 h 0,00 h 0,0 UV-I 0 W/m 12,5 km/h (3 Bft)
12.03.2013 20:00 -2,9 C -2,4 C 78 % 1004,7 hPa 0,0 l/m 0,00 h 0,00 h 0,0 UV-I 0 W/m 11,8 km/h (2 Bft)
12.03.2013 21:00 -3,6 C -2,7 C 79 % 1005,0 hPa 0,0 l/m 0,00 h 0,00 h 0,0 UV-I 0 W/m 8,3 km/h (2 Bft)
12.03.2013 22:00 -4,1 C -3,2 C 80 % 1005,1 hPa 0,0 l/m 0,00 h 0,00 h 0,0 UV-I 0 W/m 3,7 km/h (1 Bft)
12.03.2013 23:00 -4,6 C -3,6 C 81 % 1005,2 hPa 0,0 l/m 0,00 h 0,00 h 0,0 UV-I 0 W/m 1,0 km/h (0 Bft)
13.03.2013 00:00 -5,2 C -4,1 C 83 % 1005,1 hPa 0,0 l/m 0,00 h 0,00 h 0,0 UV-I 0 W/m 1,1 km/h (0 Bft)
13.03.2013 01:00 -6,3 C -5,0 C 83 % 1005,1 hPa 0,0 l/m 0,00 h 0,00 h 0,0 UV-I 0 W/m 0,0 km/h (0 Bft)
13.03.2013 02:00 -7,9 C -5,8 C 84 % 1005,0 hPa 0,0 l/m 0,00 h 0,00 h 0,0 UV-I 0 W/m 0,0 km/h (0 Bft)
13.03.2013 03:00 -8,9 C -6,3 C 86 % 1005,1 hPa 0,0 l/m 0,00 h 0,00 h 0,0 UV-I 0 W/m 0,0 km/h (0 Bft)
13.03.2013 04:00 -9,4 C -6,6 C 89 % 1005,1 hPa 0,0 l/m 0,00 h 0,00 h 0,0 UV-I 0 W/m 0,0 km/h (0 Bft)
13.03.2013 05:00 -10,1 C -7,0 C 90 % 1005,0 hPa 0,0 l/m 0,00 h 0,00 h 0,0 UV-I 0 W/m 0,0 km/h (0 Bft)
13.03.2013 06:00 -10,6 C -7,1 C 91 % 1005,0 hPa 0,0 l/m 0,00 h 0,00 h 0,0 UV-I 0 W/m 0,0 km/h (0 Bft)
13.03.2013 07:00 -10,8 C -7,1 C 92 % 1005,3 hPa 0,0 l/m 0,00 h 0,00 h 0,0 UV-I 20 W/m 0,0 km/h (0 Bft)
13.03.2013 08:00 -9,3 C -6,4 C 94 % 1005,5 hPa 0,0 l/m 0,00 h 0,00 h 0,0 UV-I 60 W/m 0,0 km/h (0 Bft)
13.03.2013 09:00 -5,6 C -4,8 C 96 % 1005,7 hPa 0,0 l/m 1,00 h 0,00 h 0,0 UV-I 319 W/m 0,2 km/h (0 Bft)
13.03.2013 10:00 -1,6 C -2,7 C 80 % 1005,9 hPa 0,0 l/m 1,00 h 0,00 h 0,7 UV-I 446 W/m 3,4 km/h (1 Bft)
13.03.2013 11:00 0,1 C -1,9 C 70 % 1006,4 hPa 0,0 l/m 1,00 h 0,00 h 1,1 UV-I 517 W/m 4,7 km/h (1 Bft)
13.03.2013 12:00 1,3 C -1,1 C 65 % 1006,5 hPa 0,0 l/m 0,90 h 0,00 h 1,2 UV-I 538 W/m 6,1 km/h (2 Bft)
13.03.2013 13:00 1,6 C -1,0 C 64 % 1006,5 hPa 0,0 l/m 0,33 h 0,00 h 0,9 UV-I 292 W/m 3,9 km/h (1 Bft)
13.03.2013 14:00 1,1 C -0,9 C 64 % 1006,5 hPa 0,0 l/m 0,00 h 0,00 h 0,0 UV-I 176 W/m 4,4 km/h (1 Bft)
13.03.2013 15:00 0,9 C -0,8 C 69 % 1006,7 hPa 0,0 l/m 0,00 h 0,00 h 0,0 UV-I 119 W/m 3,2 km/h (1 Bft)
13.03.2013 16:00 0,9 C -0,9 C 72 % 1006,6 hPa 0,0 l/m 0,10 h 0,00 h 0,0 UV-I 104 W/m 1,3 km/h (1 Bft)
13.03.2013 17:00 1,0 C -1,5 C 75 % 1006,7 hPa 0,0 l/m 0,43 h 0,00 h 0,0 UV-I 93 W/m 4,1 km/h (1 Bft)
13.03.2013 18:00 0,3 C -3,1 C 75 % 1007,4 hPa 0,0 l/m 0,00 h 0,00 h 0,0 UV-I 14 W/m 0,1 km/h (0 Bft)
13.03.2013 19:00 -1,1 C -4,6 C 78 % 1008,0 hPa 0,0 l/m 0,00 h 0,00 h 0,0 UV-I 0 W/m 0,0 km/h (0 Bft)
13.03.2013 20:00 -2,0 C -3,6 C 83 % 1008,3 hPa 0,0 l/m 0,00 h 0,00 h 0,0 UV-I 0 W/m 0,0 km/h (0 Bft)
13.03.2013 21:00 -1,4 C -2,7 C 85 % 1008,9 hPa 0,0 l/m 0,00 h 0,00 h 0,0 UV-I 0 W/m 0,8 km/h (0 Bft)
13.03.2013 22:00 -1,3 C -2,4 C 91 % 1009,0 hPa 0,0 l/m 0,00 h 0,00 h 0,0 UV-I 0 W/m 0,2 km/h (0 Bft)
13.03.2013 23:00 -1,8 C -2,8 C 92 % 1009,0 hPa 0,0 l/m 0,00 h 0,00 h 0,0 UV-I 0 W/m 0,1 km/h (0 Bft)
14.03.2013 00:00 -2,6 C -4,0 C 93 % 1009,1 hPa 0,0 l/m 0,00 h 0,00 h 0,0 UV-I 0 W/m 0,0 km/h (0 Bft)
14.03.2013 01:00 -3,9 C -4,7 C 92 % 1009,3 hPa 0,0 l/m 0,00 h 0,00 h 0,0 UV-I 0 W/m 0,0 km/h (0 Bft)
14.03.2013 02:00 -4,3 C -4,9 C 93 % 1009,3 hPa 0,0 l/m 0,00 h 0,00 h 0,0 UV-I 0 W/m 0,1 km/h (0 Bft)
14.03.2013 03:00 -4,2 C -4,3 C 95 % 1009,2 hPa 0,0 l/m 0,00 h 0,00 h 0,0 UV-I 0 W/m 0,1 km/h (0 Bft)
14.03.2013 04:00 -4,0 C -4,9 C 96 % 1008,9 hPa 0,0 l/m 0,00 h 0,00 h 0,0 UV-I 0 W/m 0,1 km/h (0 Bft)
14.03.2013 05:00 -4,7 C -5,0 C 96 % 1008,9 hPa 0,0 l/m 0,00 h 0,00 h 0,0 UV-I 0 W/m 0,0 km/h (0 Bft)
14.03.2013 06:00 -4,5 C -5,2 C 96 % 1009,0 hPa 1,2 l/m 0,00 h 0,03 h 0,0 UV-I 0 W/m 0,0 km/h (0 Bft)
14.03.2013 07:00 -5,1 C -5,3 C 96 % 1009,8 hPa 0,0 l/m 0,00 h 0,00 h 0,0 UV-I 12 W/m 0,2 km/h (0 Bft)
14.03.2013 08:00 -3,9 C -3,2 C 97 % 1010,4 hPa 0,0 l/m 0,00 h 0,00 h 0,0 UV-I 39 W/m 0,0 km/h (0 Bft)
14.03.2013 09:00 -1,8 C -1,4 C 98 % 1010,7 hPa 0,2 l/m 0,10 h 0,00 h 0,0 UV-I 93 W/m 0,5 km/h (0 Bft)
14.03.2013 10:00 0,2 C -1,3 C 95 % 1011,4 hPa 0,0 l/m 0,77 h 0,00 h 0,6 UV-I 367 W/m 2,8 km/h (1 Bft)
14.03.2013 11:00 0,8 C -1,0 C 89 % 1011,9 hPa 0,0 l/m 0,30 h 0,00 h 1,0 UV-I 287 W/m 11,7 km/h (2 Bft)
14.03.2013 12:00 2,1 C 0,0 C 82 % 1012,0 hPa 0,0 l/m 0,80 h 0,00 h 1,2 UV-I 537 W/m 12,9 km/h (3 Bft)
14.03.2013 13:00 2,3 C 0,6 C 75 % 1012,0 hPa 0,0 l/m 0,40 h 0,00 h 0,8 UV-I 371 W/m 16,6 km/h (3 Bft)
14.03.2013 14:00 2,4 C 1,6 C 71 % 1011,9 hPa 0,0 l/m 0,70 h 0,00 h 0,7 UV-I 416 W/m 18,5 km/h (3 Bft)
14.03.2013 15:00 2,6 C 1,4 C 60 % 1012,0 hPa 0,0 l/m 0,83 h 0,00 h 0,5 UV-I 393 W/m 23,8 km/h (4 Bft)
14.03.2013 16:00 2,3 C 1,0 C 57 % 1012,3 hPa 0,0 l/m 0,83 h 0,00 h 0,0 UV-I 278 W/m 22,6 km/h (4 Bft)
14.03.2013 17:00 1,4 C -0,4 C 59 % 1012,8 hPa 0,0 l/m 0,77 h 0,00 h 0,0 UV-I 108 W/m 17,6 km/h (3 Bft)
14.03.2013 18:00 0,7 C -1,4 C 62 % 1013,4 hPa 0,0 l/m 0,00 h 0,00 h 0,0 UV-I 15 W/m 8,0 km/h (2 Bft)
14.03.2013 19:00 -0,4 C -3,4 C 68 % 1013,8 hPa 0,0 l/m 0,00 h 0,00 h 0,0 UV-I 0 W/m 0,4 km/h (0 Bft)
14.03.2013 20:00 -1,9 C -4,8 C 74 % 1014,3 hPa 0,0 l/m 0,00 h 0,00 h 0,0 UV-I 0 W/m 0,0 km/h (0 Bft)
14.03.2013 21:00 -2,9 C -5,2 C 80 % 1014,6 hPa 0,0 l/m 0,00 h 0,00 h 0,0 UV-I 0 W/m 0,0 km/h (0 Bft)
14.03.2013 22:00 -3,7 C -5,6 C 85 % 1014,7 hPa 0,0 l/m 0,00 h 0,00 h 0,0 UV-I 0 W/m 0,0 km/h (0 Bft)
14.03.2013 23:00 -4,3 C -6,0 C 88 % 1014,7 hPa 0,0 l/m 0,00 h 0,00 h 0,0 UV-I 0 W/m 0,0 km/h (0 Bft)
15.03.2013 00:00 -4,5 C -6,2 C 89 % 1014,8 hPa 0,0 l/m 0,00 h 0,00 h 0,0 UV-I 0 W/m 0,0 km/h (0 Bft)
15.03.2013 01:00 -4,9 C -6,8 C 89 % 1014,7 hPa 0,0 l/m 0,00 h 0,00 h 0,0 UV-I 0 W/m 0,0 km/h (0 Bft)
15.03.2013 02:00 -5,5 C -7,1 C 91 % 1014,5 hPa 0,0 l/m 0,00 h 0,00 h 0,0 UV-I 0 W/m 0,0 km/h (0 Bft)
15.03.2013 03:00 -6,0 C -7,3 C 92 % 1014,4 hPa 0,0 l/m 0,00 h 0,00 h 0,0 UV-I 0 W/m 0,0 km/h (0 Bft)
15.03.2013 04:00 -6,3 C -7,8 C 92 % 1014,3 hPa 0,0 l/m 0,00 h 0,00 h 0,0 UV-I 0 W/m 0,0 km/h (0 Bft)
15.03.2013 05:00 -6,8 C -8,2 C 93 % 1014,5 hPa 0,0 l/m 0,00 h 0,00 h 0,0 UV-I 0 W/m 0,0 km/h (0 Bft)
15.03.2013 06:00 -6,9 C -8,1 C 94 % 1014,7 hPa 0,0 l/m 0,00 h 0,00 h 0,0 UV-I 7 W/m 0,4 km/h (0 Bft)
15.03.2013 07:00 -5,9 C -6,2 C 96 % 1015,1 hPa 0,0 l/m 0,00 h 0,00 h 0,0 UV-I 25 W/m 0,9 km/h (0 Bft)
15.03.2013 08:00 -4,3 C -3,4 C 96 % 1015,4 hPa 0,0 l/m 0,10 h 0,00 h 0,0 UV-I 109 W/m 3,0 km/h (1 Bft)
15.03.2013 09:00 -1,4 C -0,6 C 88 % 1015,5 hPa 0,0 l/m 0,33 h 0,00 h 0,0 UV-I 236 W/m 10,3 km/h (2 Bft)
15.03.2013 10:00 0,2 C 0,7 C 78 % 1015,4 hPa 0,0 l/m 0,00 h 0,00 h 0,0 UV-I 188 W/m 11,6 km/h (2 Bft)
15.03.2013 11:00 0,8 C 1,3 C 75 % 1015,5 hPa 0,0 l/m 0,07 h 0,00 h 0,6 UV-I 206 W/m 13,8 km/h (3 Bft)
15.03.2013 12:00 1,6 C 1,5 C 71 % 1015,2 hPa 0,0 l/m 0,00 h 0,00 h 0,0 UV-I 153 W/m 13,1 km/h (3 Bft)
15.03.2013 13:00 1,9 C 1,2 C 68 % 1015,0 hPa 0,0 l/m 0,00 h 0,00 h 0,0 UV-I 116 W/m 15,1 km/h (3 Bft)
15.03.2013 14:00 2,6 C 2,0 C 71 % 1014,6 hPa 0,0 l/m 0,00 h 0,00 h 0,0 UV-I 151 W/m 7,6 km/h (2 Bft)
15.03.2013 15:00 3,2 C 2,1 C 74 % 1014,4 hPa 0,0 l/m 0,00 h 0,00 h 0,0 UV-I 109 W/m 6,5 km/h (2 Bft)
15.03.2013 16:00 3,2 C 2,0 C 77 % 1014,1 hPa 0,0 l/m 0,00 h 0,00 h 0,0 UV-I 91 W/m 6,3 km/h (2 Bft)
15.03.2013 17:00 3,1 C 1,5 C 78 % 1013,9 hPa 0,0 l/m 0,00 h 0,00 h 0,0 UV-I 41 W/m 8,3 km/h (2 Bft)
15.03.2013 18:00 2,7 C 0,9 C 78 % 1013,9 hPa 0,0 l/m 0,00 h 0,00 h 0,0 UV-I 14 W/m 5,8 km/h (2 Bft)
15.03.2013 19:00 2,4 C 0,7 C 79 % 1014,0 hPa 0,0 l/m 0,00 h 0,00 h 0,0 UV-I 0 W/m 7,7 km/h (2 Bft)
15.03.2013 20:00 2,5 C 0,9 C 79 % 1013,8 hPa 0,0 l/m 0,00 h 0,00 h 0,0 UV-I 0 W/m 9,4 km/h (2 Bft)
15.03.2013 21:00 2,6 C 0,9 C 77 % 1013,5 hPa 0,0 l/m 0,00 h 0,00 h 0,0 UV-I 0 W/m 15,0 km/h (3 Bft)
15.03.2013 22:00 2,3 C 0,7 C 77 % 1013,2 hPa 0,0 l/m 0,00 h 0,00 h 0,0 UV-I 0 W/m 13,0 km/h (3 Bft)
15.03.2013 23:00 2,3 C 0,7 C 77 % 1013,0 hPa 0,0 l/m 0,00 h 0,00 h 0,0 UV-I 0 W/m 15,2 km/h (3 Bft)
16.03.2013 00:00 2,0 C 0,1 C 79 % 1012,6 hPa 0,0 l/m 0,00 h 0,00 h 0,0 UV-I 0 W/m 13,8 km/h (3 Bft)
16.03.2013 01:00 1,8 C 0,2 C 81 % 1012,3 hPa 0,0 l/m 0,00 h 0,00 h 0,0 UV-I 0 W/m 8,1 km/h (2 Bft)
16.03.2013 02:00 2,0 C 0,6 C 82 % 1011,8 hPa 0,0 l/m 0,00 h 0,00 h 0,0 UV-I 0 W/m 16,6 km/h (3 Bft)
16.03.2013 03:00 1,6 C 0,1 C 81 % 1011,2 hPa 0,0 l/m 0,00 h 0,00 h 0,0 UV-I 0 W/m 16,6 km/h (3 Bft)
16.03.2013 04:00 1,8 C 0,1 C 77 % 1010,8 hPa 0,0 l/m 0,00 h 0,00 h 0,0 UV-I 0 W/m 16,6 km/h (3 Bft)
16.03.2013 05:00 1,7 C 0,1 C 76 % 1010,6 hPa 0,0 l/m 0,00 h 0,00 h 0,0 UV-I 0 W/m 17,8 km/h (3 Bft)
16.03.2013 06:00 1,7 C 0,1 C 75 % 1010,6 hPa 0,0 l/m 0,00 h 0,00 h 0,0 UV-I 6 W/m 20,5 km/h (4 Bft)
16.03.2013 07:00 1,3 C 0,0 C 75 % 1010,5 hPa 0,0 l/m 0,00 h 0,00 h 0,0 UV-I 45 W/m 21,9 km/h (4 Bft)
16.03.2013 08:00 2,0 C 1,3 C 74 % 1010,5 hPa 0,0 l/m 0,00 h 0,00 h 0,0 UV-I 99 W/m 20,2 km/h (4 Bft)
16.03.2013 09:00 3,1 C 2,5 C 71 % 1010,4 hPa 0,0 l/m 0,00 h 0,00 h 0,0 UV-I 167 W/m 20,3 km/h (4 Bft)
16.03.2013 10:00 4,1 C 3,8 C 67 % 1010,2 hPa 0,0 l/m 0,07 h 0,00 h 0,0 UV-I 243 W/m 26,4 km/h (4 Bft)
16.03.2013 11:00 5,6 C 5,7 C 64 % 1009,7 hPa 0,0 l/m 0,70 h 0,00 h 0,5 UV-I 331 W/m 24,1 km/h (4 Bft)
16.03.2013 12:00 6,8 C 6,7 C 60 % 1009,3 hPa 0,0 l/m 1,00 h 0,00 h 0,8 UV-I 434 W/m 30,9 km/h (5 Bft)
16.03.2013 13:00 7,7 C 7,5 C 57 % 1008,5 hPa 0,0 l/m 0,93 h 0,00 h 0,8 UV-I 444 W/m 32,1 km/h (5 Bft)
16.03.2013 14:00 7,6 C 6,9 C 55 % 1007,6 hPa 0,0 l/m 0,07 h 0,00 h 0,5 UV-I 230 W/m 34,4 km/h (5 Bft)
16.03.2013 15:00 7,0 C 6,1 C 53 % 1007,1 hPa 0,0 l/m 0,00 h 0,00 h 0,0 UV-I 132 W/m 27,8 km/h (4 Bft)
16.03.2013 16:00 6,8 C 5,7 C 50 % 1006,2 hPa 0,0 l/m 0,00 h 0,00 h 0,0 UV-I 106 W/m 31,6 km/h (5 Bft)
16.03.2013 17:00 6,4 C 4,8 C 49 % 1005,6 hPa 0,0 l/m 0,00 h 0,00 h 0,0 UV-I 66 W/m 31,3 km/h (5 Bft)
16.03.2013 18:00 5,8 C 4,0 C 50 % 1005,0 hPa 0,0 l/m 0,00 h 0,00 h 0,0 UV-I 14 W/m 28,0 km/h (4 Bft)
16.03.2013 19:00 5,4 C 3,4 C 53 % 1004,7 hPa 0,0 l/m 0,00 h 0,00 h 0,0 UV-I 0 W/m 23,9 km/h (4 Bft)
16.03.2013 20:00 4,9 C 2,9 C 55 % 1004,0 hPa 0,0 l/m 0,00 h 0,00 h 0,0 UV-I 0 W/m 25,2 km/h (4 Bft)
16.03.2013 21:00 4,7 C 2,9 C 57 % 1003,8 hPa 0,0 l/m 0,00 h 0,00 h 0,0 UV-I 0 W/m 25,6 km/h (4 Bft)
16.03.2013 22:00 4,9 C 3,3 C 58 % 1003,9 hPa 0,0 l/m 0,00 h 0,00 h 0,0 UV-I 0 W/m 23,5 km/h (4 Bft)
16.03.2013 23:00 5,1 C 3,4 C 58 % 1003,7 hPa 0,0 l/m 0,00 h 0,00 h 0,0 UV-I 0 W/m 18,5 km/h (3 Bft)
17.03.2013 00:00 5,1 C 3,4 C 59 % 1003,1 hPa 0,0 l/m 0,00 h 0,00 h 0,0 UV-I 0 W/m 19,5 km/h (3 Bft)
17.03.2013 01:00 4,8 C 3,3 C 61 % 1002,3 hPa 0,0 l/m 0,00 h 0,00 h 0,0 UV-I 0 W/m 19,2 km/h (3 Bft)
17.03.2013 02:00 4,3 C 2,5 C 67 % 1001,6 hPa 0,0 l/m 0,00 h 0,00 h 0,0 UV-I 0 W/m 23,4 km/h (4 Bft)
17.03.2013 03:00 3,8 C 2,3 C 69 % 1000,8 hPa 0,0 l/m 0,00 h 0,00 h 0,0 UV-I 0 W/m 18,1 km/h (3 Bft)
17.03.2013 04:00 3,6 C 1,2 C 77 % 1000,3 hPa 0,6 l/m 0,00 h 0,73 h 0,0 UV-I 0 W/m 13,9 km/h (3 Bft)
17.03.2013 05:00 3,0 C 1,0 C 91 % 1000,0 hPa 2,2 l/m 0,00 h 1,00 h 0,0 UV-I 0 W/m 20,6 km/h (4 Bft)
17.03.2013 06:00 2,4 C 0,8 C 95 % 999,9 hPa 1,0 l/m 0,00 h 1,00 h 0,0 UV-I 0 W/m 21,5 km/h (4 Bft)
17.03.2013 07:00 2,3 C 1,2 C 97 % 999,8 hPa 0,0 l/m 0,00 h 0,33 h 0,0 UV-I 12 W/m 21,4 km/h (4 Bft)
17.03.2013 08:00 2,5 C 1,5 C 97 % 999,6 hPa 0,0 l/m 0,00 h 0,17 h 0,0 UV-I 44 W/m 24,6 km/h (4 Bft)
17.03.2013 09:00 3,3 C 2,6 C 96 % 999,5 hPa 0,0 l/m 0,00 h 0,00 h 0,0 UV-I 112 W/m 23,3 km/h (4 Bft)
17.03.2013 10:00 4,4 C 3,9 C 93 % 999,0 hPa 0,0 l/m 0,00 h 0,00 h 0,0 UV-I 182 W/m 27,8 km/h (4 Bft)
17.03.2013 11:00 6,3 C 6,2 C 88 % 998,5 hPa 0,0 l/m 0,63 h 0,00 h 1,0 UV-I 431 W/m 26,8 km/h (4 Bft)
17.03.2013 12:00 8,0 C 7,6 C 80 % 997,9 hPa 0,0 l/m 0,37 h 0,00 h 0,9 UV-I 376 W/m 25,8 km/h (4 Bft)
17.03.2013 13:00 9,1 C 8,5 C 77 % 997,2 hPa 0,0 l/m 0,97 h 0,00 h 1,2 UV-I 615 W/m 23,7 km/h (4 Bft)
17.03.2013 14:00 8,8 C 8,0 C 77 % 996,5 hPa 0,0 l/m 0,07 h 0,00 h 0,7 UV-I 190 W/m 22,8 km/h (4 Bft)
17.03.2013 15:00 8,0 C 7,2 C 80 % 996,0 hPa 0,0 l/m 0,17 h 0,00 h 0,0 UV-I 166 W/m 26,6 km/h (4 Bft)
17.03.2013 16:00 6,6 C 5,5 C 83 % 995,5 hPa 0,0 l/m 0,00 h 0,00 h 0,0 UV-I 45 W/m 25,7 km/h (4 Bft)
17.03.2013 17:00 5,9 C 4,9 C 86 % 995,6 hPa 0,0 l/m 0,00 h 0,03 h 0,0 UV-I 39 W/m 24,6 km/h (4 Bft)
17.03.2013 18:00 5,3 C 3,3 C 89 % 994,8 hPa 0,2 l/m 0,00 h 0,57 h 0,0 UV-I 8 W/m 19,2 km/h (3 Bft)
17.03.2013 19:00 4,7 C 2,9 C 93 % 994,4 hPa 0,0 l/m 0,00 h 0,20 h 0,0 UV-I 0 W/m 15,8 km/h (3 Bft)
17.03.2013 20:00 4,5 C 2,9 C 94 % 993,8 hPa 0,2 l/m 0,00 h 0,53 h 0,0 UV-I 0 W/m 13,3 km/h (3 Bft)
17.03.2013 21:00 4,2 C 2,9 C 95 % 993,2 hPa 0,0 l/m 0,00 h 0,03 h 0,0 UV-I 0 W/m 14,1 km/h (3 Bft)
17.03.2013 22:00 4,1 C 2,4 C 95 % 992,8 hPa 0,0 l/m 0,00 h 0,00 h 0,0 UV-I 0 W/m 14,7 km/h (3 Bft)
17.03.2013 23:00 4,2 C 2,9 C 94 % 992,6 hPa 0,0 l/m 0,00 h 0,00 h 0,0 UV-I 0 W/m 22,0 km/h (4 Bft)
Min-Datum _ 13.03.13 15.03.13 16.03.13 17.03.13 - - - - - 11.03.13
_ Min-Zeit 07:02 04:48 17:00 23:30 - - - - - 00:08
Minimum _ -10,8 C -8,2 C 48 % 992,4 hPa - - - - - 0,0 km/h (0 Bft)
Max-Datum _ 17.03.13 17.03.13 14.03.13 15.03.13 17.03.13 13.03.13 11.03.13 13.03.13 17.03.13 16.03.13
_ Max-Zeit 13:52 12:56 07:46 09:42 05:02 09:00 17:52 12:04 12:56 16:22
Maximum _ 9,8 C 9,0 C 100 % 1015,6 hPa 2,2 l/m 0,03 h 0,03 h 1,5 UV-I 775 W/m 56,6 km/h
S-SO (7 Bft)
Durchschnitt _ -0,2 C -1,0 C 81 % 1006,9 hPa #9,6 l/m #15:44 h #4:46 h 0,8 UV-I 158 W/m 11,3 km/h (2 Bft)
© 2013 W. Hausmann